When you browse on this site, cookies collect data to enhance your experience and personalize the content and advertising you see.
Visit our Privacy Policy to learn more. By continuing to use the site, you agree to this use of cookies and data.
  • In Lithuania
  • List of Countries
  • For 7 days
  • Water Temperature
  • Satellite Maps
  • Weather Map
  • Weather Widgets
  • user-avatar
    Login

    Hourly Weather Kepino

    Today, 22 April, Monday

    Time Temperature Precipitation Wind Pressure Humidity
    00:00 +9°C° 0 mm 1 mps 749 mmHg 67%
    01:00 +8°C° 0 mm 2 mps 748 mmHg 69%
    02:00 +7°C° 0 mm 2 mps 748 mmHg 75%
    03:00 +6°C° 0 mm 2 mps 748 mmHg 82%
    04:00 +6°C° 0 mm 1 mps 748 mmHg 88%
    05:00 +6°C° 0 mm 2 mps 748 mmHg 85%
    06:00 +7°C° 0 mm 2 mps 748 mmHg 83%
    07:00 +7°C° 0 mm 3 mps 748 mmHg 80%
    08:00 +9°C° 0 mm 3 mps 748 mmHg 73%
    09:00 +10°C° 0 mm 4 mps 748 mmHg 66%
    10:00 +12°C° 0 mm 4 mps 748 mmHg 59%
    11:00 +12°C° 0 mm 5 mps 748 mmHg 57%
    12:00 +13°C° 0 mm 5 mps 747 mmHg 55%
    13:00 +14°C° 0 mm 6 mps 747 mmHg 53%
    14:00 +15°C° 0 mm 5 mps 747 mmHg 51%
    15:00 +16°C° 0 mm 5 mps 747 mmHg 49%
    16:00 +18°C° 0 mm 4 mps 747 mmHg 47%
    17:00 +15°C° 0 mm 5 mps 746 mmHg 51%
    18:00 +14°C° 0 mm 5 mps 746 mmHg 56%
    19:00 +13°C° 0 mm 6 mps 746 mmHg 60%
    20:00 +11°C° 0 mm 6 mps 746 mmHg 61%
    21:00 +11°C° 0 mm 6 mps 746 mmHg 62%
    22:00 +10°C° 0 mm 6 mps 746 mmHg 63%
    23:00 +9°C° 0 mm 6 mps 746 mmHg 65%

    Tomorrow, 23 April, Tuesday

    Time Temperature Precipitation Wind Pressure Humidity
    00:00 +8°C° 0 mm 5 mps 746 mmHg 67%
    01:00 +7°C° 0 mm 5 mps 746 mmHg 69%
    02:00 +7°C° 0 mm 5 mps 746 mmHg 72%
    03:00 +7°C° 0 mm 5 mps 745 mmHg 75%
    04:00 +7°C° 0 mm 5 mps 745 mmHg 77%
    05:00 +7°C° 0 mm 5 mps 745 mmHg 77%
    06:00 +8°C° 0 mm 6 mps 745 mmHg 76%
    07:00 +9°C° 0 mm 7 mps 745 mmHg 75%
    08:00 +10°C° 0.2 mm 7 mps 745 mmHg 75%
    09:00 +10°C° 0.2 mm 7 mps 745 mmHg 76%
    10:00 +11°C° 0.2 mm 7 mps 745 mmHg 76%
    11:00 +12°C° 0 mm 7 mps 745 mmHg 72%
    12:00 +15°C° 0 mm 7 mps 744 mmHg 67%
    13:00 +16°C° 0 mm 7 mps 744 mmHg 63%
    14:00 +16°C° 0.5 mm 7 mps 744 mmHg 64%
    15:00 +16°C° 0.5 mm 6 mps 744 mmHg 66%
    16:00 +15°C° 0.5 mm 6 mps 743 mmHg 68%
    17:00 +14°C° 0.3 mm 6 mps 743 mmHg 73%
    18:00 +11°C° 0.3 mm 6 mps 743 mmHg 78%
    19:00 +10°C° 0.3 mm 5 mps 743 mmHg 82%
    20:00 +10°C° 0.4 mm 5 mps 743 mmHg 83%
    21:00 +10°C° 0.4 mm 5 mps 743 mmHg 84%
    22:00 +10°C° 0.4 mm 5 mps 743 mmHg 85%
    23:00 +9°C° 0.3 mm 5 mps 743 mmHg 86%

    Day after tomorrow, 24 April, Wednesday

    Time Temperature Precipitation Wind Pressure Humidity
    00:00 +9°C° 0.3 mm 5 mps 743 mmHg 86%
    01:00 +9°C° 0.3 mm 5 mps 743 mmHg 87%
    02:00 +9°C° 0 mm 5 mps 743 mmHg 87%
    03:00 +8°C° 0 mm 5 mps 743 mmHg 87%
    04:00 +8°C° 0 mm 5 mps 742 mmHg 86%
    05:00 +9°C° 0 mm 5 mps 743 mmHg 84%
    06:00 +10°C° 0 mm 5 mps 743 mmHg 83%
    07:00 +12°C° 0 mm 5 mps 743 mmHg 81%
    08:00 +13°C° 0 mm 5 mps 743 mmHg 77%
    09:00 +15°C° 0 mm 6 mps 743 mmHg 73%
    10:00 +16°C° 0 mm 6 mps 743 mmHg 69%
    11:00 +17°C° 0 mm 6 mps 743 mmHg 67%
    12:00 +17°C° 0 mm 5 mps 744 mmHg 66%
    13:00 +19°C° 0 mm 5 mps 744 mmHg 65%
    14:00 +19°C° 0 mm 5 mps 744 mmHg 65%
    15:00 +19°C° 0 mm 5 mps 744 mmHg 65%
    16:00 +20°C° 0 mm 5 mps 743 mmHg 66%
    17:00 +17°C° 0 mm 5 mps 743 mmHg 71%
    18:00 +17°C° 0 mm 4 mps 744 mmHg 76%
    19:00 +15°C° 0 mm 4 mps 744 mmHg 82%
    20:00 +14°C° 0 mm 4 mps 744 mmHg 83%
    21:00 +14°C° 0 mm 4 mps 744 mmHg 85%
    22:00 +13°C° 0 mm 4 mps 744 mmHg 86%
    23:00 +13°C° 0 mm 3 mps 744 mmHg 88%

    25 April, Thursday

    Time Temperature Precipitation Wind Pressure Humidity
    00:00 +12°C° 0 mm 3 mps 744 mmHg 89%
    01:00 +12°C° 0 mm 3 mps 744 mmHg 91%
    02:00 +12°C° 0 mm 2 mps 744 mmHg 92%
    03:00 +12°C° 0 mm 2 mps 744 mmHg 92%
    04:00 +12°C° 0 mm 2 mps 745 mmHg 93%
    05:00 +13°C° 0 mm 2 mps 745 mmHg 89%
    06:00 +14°C° 0 mm 2 mps 745 mmHg 86%
    07:00 +15°C° 0 mm 1 mps 746 mmHg 83%
    08:00 +18°C° 0 mm 1 mps 746 mmHg 76%
    09:00 +19°C° 0 mm 2 mps 746 mmHg 70%
    10:00 +20°C° 0 mm 2 mps 746 mmHg 64%
    11:00 +21°C° 0 mm 2 mps 746 mmHg 60%
    12:00 +23°C° 0 mm 2 mps 746 mmHg 57%
    13:00 +25°C° 0 mm 2 mps 746 mmHg 53%
    14:00 +25°C° 0 mm 2 mps 746 mmHg 53%
    15:00 +25°C° 0 mm 3 mps 746 mmHg 54%
    16:00 +25°C° 0 mm 3 mps 746 mmHg 55%
    17:00 +22°C° 0 mm 3 mps 745 mmHg 62%
    18:00 +20°C° 0 mm 3 mps 745 mmHg 70%
    19:00 +18°C° 0 mm 2 mps 745 mmHg 77%
    20:00 +17°C° 0 mm 2 mps 745 mmHg 81%
    21:00 +16°C° 0 mm 2 mps 745 mmHg 84%
    22:00 +15°C° 0 mm 2 mps 745 mmHg 87%
    23:00 +15°C° 0 mm 2 mps 745 mmHg 88%

    26 April, Friday

    Time Temperature Precipitation Wind Pressure Humidity
    00:00 +15°C° 0 mm 2 mps 744 mmHg 89%
    01:00 +14°C° 0 mm 2 mps 744 mmHg 90%
    02:00 +14°C° 0 mm 2 mps 743 mmHg 91%
    03:00 +14°C° 0 mm 2 mps 743 mmHg 91%
    04:00 +13°C° 0 mm 2 mps 743 mmHg 92%
    05:00 +15°C° 0 mm 2 mps 742 mmHg 87%
    06:00 +16°C° 0 mm 2 mps 742 mmHg 82%
    07:00 +17°C° 0 mm 3 mps 742 mmHg 77%
    08:00 +19°C° 0 mm 3 mps 742 mmHg 71%
    09:00 +20°C° 0 mm 3 mps 742 mmHg 65%
    10:00 +22°C° 0 mm 4 mps 742 mmHg 59%
    11:00 +23°C° 0.1 mm 4 mps 742 mmHg 56%
    12:00 +25°C° 0.1 mm 4 mps 742 mmHg 54%
    13:00 +26°C° 0.1 mm 4 mps 742 mmHg 51%
    14:00 +25°C° 0.6 mm 4 mps 742 mmHg 54%
    15:00 +25°C° 0.6 mm 4 mps 742 mmHg 58%
    16:00 +23°C° 0.6 mm 5 mps 742 mmHg 61%
    17:00 +20°C° 0.5 mm 6 mps 743 mmHg 71%
    18:00 +16°C° 0.5 mm 6 mps 743 mmHg 80%
    19:00 +14°C° 0.5 mm 7 mps 744 mmHg 89%
    20:00 +12°C° 0 mm 7 mps 745 mmHg 88%
    21:00 +11°C° 0 mm 7 mps 745 mmHg 86%
    22:00 +9°C° 0 mm 6 mps 746 mmHg 85%
    23:00 +9°C° 0 mm 6 mps 747 mmHg 84%

    27 April, Saturday

    Time Temperature Precipitation Wind Pressure Humidity
    00:00 +9°C° 0 mm 6 mps 747 mmHg 84%
    01:00 +8°C° 0 mm 6 mps 748 mmHg 83%
    02:00 +8°C° 0 mm 5 mps 748 mmHg 83%
    03:00 +8°C° 0 mm 4 mps 748 mmHg 82%
    04:00 +8°C° 0 mm 4 mps 749 mmHg 82%
    05:00 +8°C° 0 mm 4 mps 749 mmHg 80%
    06:00 +10°C° 0 mm 4 mps 750 mmHg 78%
    07:00 +10°C° 0 mm 5 mps 750 mmHg 76%
    08:00 +12°C° 0 mm 5 mps 750 mmHg 70%
    09:00 +14°C° 0 mm 5 mps 750 mmHg 64%
    10:00 +15°C° 0 mm 5 mps 750 mmHg 58%
    11:00 +16°C° 0 mm 5 mps 750 mmHg 56%
    12:00 +17°C° 0 mm 5 mps 750 mmHg 54%
    13:00 +17°C° 0 mm 5 mps 750 mmHg 52%
    14:00 +18°C° 0.1 mm 4 mps 750 mmHg 52%
    15:00 +18°C° 0.1 mm 4 mps 750 mmHg 52%
    16:00 +18°C° 0.1 mm 4 mps 750 mmHg 52%
    17:00 +17°C° 0 mm 3 mps 750 mmHg 58%
    18:00 +15°C° 0 mm 2 mps 750 mmHg 63%
    19:00 +14°C° 0 mm 2 mps 750 mmHg 69%
    20:00 +13°C° 0 mm 2 mps 751 mmHg 70%
    21:00 +12°C° 0 mm 2 mps 751 mmHg 72%
    22:00 +10°C° 0 mm 2 mps 751 mmHg 74%
    23:00 +10°C° 0 mm 2 mps 751 mmHg 76%
    Show more